TIME,DELAY(SENSOR),PRES,OXYGEN,RAWTEMP,T(OPTODE),TCPHASE,FLUOR,BETA(BETA700),BETA(BETA412),BETA(BETA440),CDOM,C(CSC),ED(ED412.20),ED(ED444.00),ED(ED489.60),ED(ED554.30),LU(LU412.10),LU(LU443.90),LU(LU489.70),LU(LU554.70),COMP,TILTX,TILTY,CHECK
1342322367,5809,882.1900024414062000,38.9624595642089840,558.1834716796875000,4.5421791076660160,55.6458702087402340,55,101,100,79,82,15573,0,0,0,0,2147124644,2147773970,2147571693,2147571501,772,3,13,13525
1342325963,5810,971.5800170898438000,42.6529006958007800,566.9263916015625000,4.2710337638854980,55.1889610290527340,55,100,101,78,83,15569,0,0,0,0,2147125385,2147778962,2147576905,2147572589,2853,3,13,49410
1342329563,5808,982.5599975585938000,44.1177215576171900,570.1978149414062000,4.1694149971008300,55.0186386108398440,56,101,101,78,81,15569,0,0,0,0,2147122468,2147777856,2147571858,2147570944,422,3,13,41971
1342333163,5810,996.0000000000000000,43.7868614196777340,570.2896728515625000,4.1665592193603520,55.0642395019531250,54,99,108,78,83,15563,0,0,0,0,2147121161,2147775552,2147572955,2147570358,162,3,13,4145
1342336763,5810,994.5999755859375000,44.0123405456543000,571.1580200195312000,4.1395721435546875,55.0447883605957000,55,100,101,79,83,15568,0,0,0,0,2147121910,2147778678,2147571364,2147574125,3570,3,13,31209
1342340363,5809,1003.1599731445312000,43.9436416625976560,571.7603759765625000,4.1208438873291020,55.0589599609375000,55,99,102,78,83,15568,0,0,0,0,2147122724,2147776210,2147573394,2147569746,158,3,13,29980
1342343963,5807,1008.9400024414062000,43.6267814636230500,570.7266845703125000,4.1529750823974610,55.0901794433593750,55,99,101,78,82,15567,0,0,0,0,2147124534,2147776448,2147573001,2147570816,123,3,13,32014
1342347563,5809,1011.0599975585938000,43.6115684509277340,570.6411132812500000,4.1556401252746580,55.0933914184570300,55,99,102,79,84,15566,0,0,0,0,2147122486,2147778724,2147574857,2147571300,3413,3,13,32521
1342351163,5810,1012.0800170898438000,43.0410194396972660,569.2249755859375000,4.1996397972106930,55.1629486083984400,54,99,101,78,83,15564,0,0,0,0,2147123337,2147774985,2147574811,2147570733,3553,3,13,41834
1342354763,5807,1014.7199707031250000,42.6349296569824200,569.5864868164062000,4.1884098052978520,55.2201881408691400,55,98,101,78,83,15528,0,0,0,0,2147123245,2147775515,2147575341,2147573595,330,3,13,18135
1342358363,5809,1016.3400268554688000,42.5774497985839840,570.2548217773438000,4.1676449775695800,55.2382698059082000,55,99,101,78,83,15559,0,0,0,0,2147123392,2147776347,2147569792,2147568905,204,3,13,26877
1342361963,5809,1011.2100219726562000,42.5146217346191400,570.2857055664062000,4.1666831970214840,55.2478713989257800,55,102,101,78,83,15562,0,0,0,0,2147124141,2147772900,2147576768,2147570112,155,3,13,51556
1342365563,5808,1012.8699951171875000,43.1136589050293000,570.4415893554688000,4.1618390083312990,55.1601600646972660,55,101,102,78,82,15563,0,0,0,0,2147124306,2147778678,2147573449,2147571218,135,3,13,37194
1342369163,5809,1008.0700073242188000,42.7036895751953100,570.3281860351562000,4.1653609275817870,55.2211303710937500,56,99,101,79,84,15562,0,0,0,0,2147123602,2147773933,2147573248,2147569746,2757,3,13,55728
1342372763,5808,1021.4600219726562000,42.9418296813964840,569.6616210937500000,4.1860771179199220,55.1781387329101560,55,99,102,78,83,15561,0,0,0,0,2147124187,2147777974,2147572416,2147570404,960,3,13,31742
1342376363,5811,1016.7800292968750000,42.7221107482910160,570.4362182617188000,4.1620039939880370,55.2214889526367200,55,99,102,78,84,15554,0,0,0,0,2147122578,2147780306,2147575030,2147573568,307,3,13,51461
1342379963,5806,1021.8599853515625000,43.0630912780761700,570.3900146484375000,4.1634430885314940,55.1678390502929700,55,102,101,78,83,15550,0,0,0,0,2147124196,2147773595,2147575460,2147575021,3597,3,13,50466
1342383563,5808,1017.4600219726562000,43.0122299194335940,570.3933105468750000,4.1633381843566895,55.1788902282714840,54,101,100,79,84,15550,0,0,0,0,2147121645,2147777325,2147574628,2147569682,355,3,13,33636
1342387163,5808,1019.0700073242188000,42.6062316894531250,570.2114257812500000,4.1689929962158200,55.2314796447753900,55,99,101,78,82,15553,0,0,0,0,2147124781,2147771803,2147575442,2147573760,568,3,13,8704
1342390763,5809,1020.4299926757812000,42.7508583068847660,570.4868774414062000,4.1604309082031250,55.2138404846191400,56,99,102,77,83,15553,0,0,0,0,2147124096,2147774208,2147573275,2147571684,3164,3,13,55161
1342394363,5809,1021.5999755859375000,42.6806793212890600,570.3961791992188000,4.1632499694824220,55.2229118347168000,55,102,102,79,84,15546,0,0,0,0,2147123556,2147773888,2147570788,2147572809,115,3,13,63259
1342397963,5807,1028.3399658203125000,42.8631286621093750,569.5313720703125000,4.1901211738586430,55.1896591186523440,55,100,102,78,84,15547,0,0,0,0,2147123894,2147772105,2147569947,2147571931,632,3,13,62015
1342401563,5813,1017.4500122070312000,42.4948616027832000,570.4243774414062000,4.1623730659484860,55.2515716552734400,55,100,103,77,83,15549,0,0,0,0,2147125760,2147776118,2147577554,2147570358,651,3,13,14993
1342405163,5811,1013.3800048828125000,43.2911300659179700,572.4244995117188000,4.1001930236816410,55.1549491882324200,55,99,101,78,84,15546,0,0,0,0,2147122432,2147774820,2147572982,2147569673,3174,3,13,38297
1342408763,5807,1014.6300048828125000,43.4608688354492200,572.4760742187500000,4.0985870361328125,55.1328086853027340,55,104,100,78,84,15544,0,0,0,0,2147122139,2147775204,2147575442,2147572059,171,3,13,48239
1342412363,5808,1014.0599975585938000,43.5405082702636700,572.8245849609375000,4.0877490043640140,55.1279411315918000,55,98,100,78,82,15548,0,0,0,0,2147121362,2147775213,2147575414,2147569682,202,3,13,51841
1342415963,5811,1013.9400024414062000,42.8479881286621100,573.0806884765625000,4.0797858238220215,55.2280311584472660,54,101,101,79,84,15548,0,0,0,0,2147121700,2147781851,2147578843,2147573394,3453,3,13,37380
1342419563,5807,1012.1799926757812000,43.1786499023437500,572.8353271484375000,4.0874199867248535,55.1806297302246100,55,102,101,79,83,15545,0,0,0,0,2147122523,2147770240,2147574198,2147573778,131,3,13,12726
1342423163,5808,1012.1699829101562000,43.1111793518066400,573.3364868164062000,4.0718312263488770,55.1963691711425800,55,100,101,79,83,15546,0,0,0,0,2147125613,2147775268,2147577097,2147570944,104,3,13,35064
1342426763,5810,1014.5499877929688000,43.9421615600585940,572.8488769531250000,4.0869960784912110,55.0732192993164060,55,97,101,78,83,15545,0,0,0,0,2147124608,2147775588,2147575241,2147571611,3334,3,13,57371
1342430363,5809,1020.2299804687500000,43.9767417907714840,571.8209228515625000,4.1189627647399900,55.0589408874511700,55,99,102,79,83,15544,0,0,0,0,2147124416,2147779885,2147573229,2147571474,3419,3,13,43528
1342433963,5808,1023.3599853515625000,43.1481208801269500,570.8549804687500000,4.1489868164062500,55.1630210876464840,55,101,100,80,84,15544,0,0,0,0,2147124022,2147774345,2147576365,2147572955,3354,3,13,6902
1342437563,5811,1025.3800048828125000,42.8457717895507800,570.2988281250000000,4.1662731170654300,55.2015991210937500,55,100,101,78,83,15541,0,0,0,0,2147124452,2147774272,2147576758,2147573284,3502,3,13,27089
1342441163,5811,1024.8399658203125000,42.5451011657714840,570.3989868164062000,4.1631598472595215,55.2436790466308600,55,101,101,78,83,15539,0,0,0,0,2147123328,2147772571,2147576347,2147572864,98,3,13,52935
1342444763,5810,1025.4200439453125000,42.4825782775878900,570.3767700195312000,4.1638488769531250,55.2519302368164060,55,99,101,77,83,15537,0,0,0,0,2147124361,2147777325,2147573979,2147571053,252,3,13,60797
1342448363,5809,1022.5000000000000000,42.1988296508789060,570.2880859375000000,4.1666088104248050,55.2942199707031250,55,100,102,79,83,15544,0,0,0,0,2147123300,2147772534,2147571593,2147569929,309,3,13,56426
1342451963,5810,1021.3400268554688000,42.3427314758300800,571.5357055664062000,4.1278271675109860,55.2841300964355500,55,102,102,78,83,15541,0,0,0,0,2147122057,2147770688,2147576640,2147568813,3286,3,13,46622
1342455563,5810,1026.9300537109375000,42.2602386474609400,570.3884277343750000,4.1634898185729980,55.2827415466308600,55,103,101,79,83,15543,0,0,0,0,2147124781,2147777462,2147573467,2147571163,149,3,13,28225
1342459163,5810,1020.8499755859375000,42.9146614074707000,571.6256103515625000,4.1250319480896000,55.2064094543457000,55,101,101,78,83,15536,0,0,0,0,2147122587,2147775469,2147574180,2147570989,3510,3,13,45951
1342462763,5809,1023.9899902343750000,42.8000183105468750,570.3632202148438000,4.1642718315124510,55.2097892761230500,54,100,101,78,82,15541,0,0,0,0,2147123958,2147777234,2147573760,2147573248,3571,3,13,20799
1342466363,5810,1023.3599853515625000,42.1207313537597660,570.3931274414062000,4.1633429527282715,55.3078193664550800,55,99,101,79,83,15539,0,0,0,0,2147123830,2147771154,2147574756,2147571766,3245,3,13,42949
1342466756,5809,1024.2700195312500000,41.9703216552734400,570.4234008789062000,4.1624031066894530,55.3276710510253900,55,100,102,78,82,15536,0,0,0,0,2147125238,2147771392,2147576896,2147571145,201,3,13,36079
